Regional Weather Roundup
Issued by NWS Newport/Morehead, NC

Current Version | Previous Version | Text Only | Print | Product List | Glossary On
Versions: 1 2 3 4 5 6 7 8 9 10 11 12 13 14 15 16 17 18 19 20 21 22 23 24 25 26 27 28 29 30 31 32 33 34 35 36 37 38 39 40 41 42 43 44 45 46 47 48 49 50
000 ASUS42 KMHX 252210 RWRMHX WEATHER ROUNDUP FOR EASTERN NORTH CAROLINA NATIONAL WEATHER SERVICE NEWPORT/MOREHEAD CITY NC 500 PM EST SUN JAN 25 2015 NOTE: "FAIR" INDICATES FEW OR NO CLOUDS BELOW 12,000 FEET WITH NO SIGNIFICANT WEATHER AND/OR OBSTRUCTIONS TO VISIBILITY NCZ015>017-031-032-045>047-102-103-252300- NORTH COAST CITY SKY/WX TMP DP RH WIND PRES REMARKS EDENTON CLEAR 50 36 58 S8 29.86F ELIZABETH CITY CLEAR 45 34 65 SE8 29.88F KITTY HAWK CLEAR 45 31 59 SE5 29.89F MANTEO CLEAR 45 30 57 S7 29.90F $$ NCZ045>047-081-094-103-104-252300- CENTRAL COAST CITY SKY/WX TMP DP RH WIND PRES REMARKS FRISCO CLEAR 47 34 60 SE5 29.90F SWANQUARTER NOT AVBL $$ NCZ095-097-098-100-101-252300- SOUTHERN COAST CITY SKY/WX TMP DP RH WIND PRES REMARKS BEAUFORT CLEAR 48 36 63 S7 29.91S CEDAR ISLAND NOT AVBL JACKSONVILLE CLEAR 49 35 58 S9 29.90R PINEY ISLAND N/A N/A N/A N/A MISG 29.91R WILMINGTON CLEAR 50 34 54 S9 29.90F $$ NCZ011>013-027>030-043-044-078>080-089-090>093-098-252300- COASTAL PLAIN CITY SKY/WX TMP DP RH WIND PRES REMARKS AHOSKIE CLEAR 49 33 54 S3 29.87S CLINTON CLEAR 55 37 51 S6 29.86F ELIZABETHTOWN CLEAR 54 35 47 S7 29.86F GOLDSBORO CLEAR 53 39 59 SE6 29.84F GREENVILLE CLEAR 52 32 46 S5 29.90S HAVELOCK CLEAR 49 35 58 S9 29.91S KENANSVILLE CLEAR 53 32 45 SE3 29.88S KINSTON CLEAR 54 34 47 S7 29.88F NEW BERN CLEAR 52 33 48 SE7 29.90S RICHLANDS CLEAR 50 36 57 S9 29.89S ROCKY MOUNT CLEAR 52 33 48 S5 29.85F WASHINGTON CLEAR 51 32 48 S6 29.88S WHITEVILLE CLEAR 53 31 42 SE6 29.87F $$ AMZ130-135-150-152-154-156-158-170-250-252-270-ANZ085-086-088-633-658-670-252300- MARINE OBSERVATIONS STATION/POSITION TIME TEMP WIND PRES WAVE SWELL AIR SEA DIR/SP/G HT/PER HT/PER (UTC) (F) (DEG/KT/KT) (MB) (FT/S) (FT/S) CHESAPEAKE LIGHT 2100 45 180/ 17/ 18 1012.4 64 E VA BEACH 2200 47 52 220/ 10/ 10 1012.6 4/10 3/10 DUCK 2200 46 44 140/ 14/ 15 1011.3 2 E DUCK 2200 44 N/A 2/10 2/11 10 NE DUCK 2200 45 N/A 3/11 2/11 OREGON INLET 2200 46 46 150/ 7/ 10 1012.5 13E OREGON INLT 2200 46 N/A 4/10 2/11 HATTERAS CG 2200 49 53 150/ 4/ 6 1012.8 DIAMOND BUOY 2200 51 69 160/ 2/ 6 1012.8 3/10 3/10 17 S OCRACOKE NOT AVBL CAPE LOOKOUT 2100 48 170/ 7/ 8 1012.9 BEAUFORT LAB 2200 49 50 190/ 9/ 11 1011.7 27 SE WRIGHTSVLE NOT AVBL 5 SE WRIGHTSVLE 2100 51 52 180/ 8/ 8 1013.0 225 S CAPE HAT 2058 65 72 260/ 12/ 14 1013.8 7/ 8 7/ 8 41 SE CHARLESTON 2200 58 69 200/ 12/ 14 1012.3 2/ 8 2/ 8 $$

USA.gov is the U.S. government's official web portal to all federal, state and local government web resources and services.